Weather History for KLVN - February, 2012

Change the Weather History Date:

Tuesday, February 7, 2012

  Actual Average Record
Temperature  
Mean Temperature 24 °F -  
Max Temperature 30 °F 23 °F 52 °F (1987)
Min Temperature 17 °F 3 °F -26 °F (1972)
Degree Days  
Heating Degree Days 42    
Moisture  
Dew Point 17 °F    
Average Humidity 73    
Maximum Humidity 86    
Minimum Humidity 59    
Precipitation  
Precipitation 0.00 in - - ()
Sea Level Pressure  
Sea Level Pressure 30.43 in    
Wind  
Wind Speed 10 mph (NNE)    
Max Wind Speed 15 mph    
Max Gust Speed 21 mph    
Visibility 10 miles    
Events Snow    
Averages and records for this station are not official NWS values.
T = Trace of Precipitation, MM = Missing Value Source: NWS Daily Summary

Daily Weather History Graph

Daily Weather History Graph

Search for Another Location

Airport or City:

Trip Planner

Search our weather history database for the weather conditions in past years. The results will help you decide how hot, cold, wet, or windy it might be!

Date:

Astronomy

Feb. 07, 2012 Rise Set
Actual Time 7:25 AM CST 5:29 PM CST
Civil Twilight 6:54 AM CST 6:00 PM CST
Nautical Twilight 6:19 AM CST 6:34 PM CST
Astronomical Twilight 5:45 AM CST 7:08 PM CST
Moon 5:43 PM CST (2/7) 6:52 AM CST (2/7)
Length of Visible Light 11h 05m
Length of Day
10h 04m
Full, 100% of the Moon is Illuminated
Feb 7
Full
Feb 7
Full
Feb 14
Last Quarter
Feb 21
New
Feb 29
First Quarter

Hourly Weather History & Observations

Time (CST) Temp. Windchill Dew Point Humidity Pressure Visibility Wind Dir Wind Speed Gust Speed Precip Events Conditions
12:05 AM 28.4 °F 19.1 °F 24.8 °F 86% 30.27 in 10.0 mi North 10.4 mph - N/A   Mostly Cloudy
12:25 AM 28.4 °F 18.0 °F 24.8 °F 86% 30.27 in 10.0 mi North 12.7 mph - N/A   Overcast
12:45 AM 30.2 °F 20.8 °F 24.8 °F 80% 30.28 in 10.0 mi North 11.5 mph 19.6 mph N/A   Overcast
1:05 AM 30.2 °F 20.2 °F 24.8 °F 80% 30.29 in 10.0 mi NNE 12.7 mph - N/A   Overcast
1:25 AM 30.2 °F 21.9 °F 24.8 °F 80% 30.29 in 10.0 mi North 9.2 mph 17.3 mph N/A   Overcast
1:45 AM 28.4 °F 18.5 °F 23.0 °F 80% 30.30 in 10.0 mi NNE 11.5 mph 20.7 mph N/A   Overcast
2:05 AM 28.4 °F 19.1 °F 23.0 °F 80% 30.31 in 10.0 mi NNE 10.4 mph 17.3 mph N/A   Overcast
2:25 AM 28.4 °F 18.5 °F 23.0 °F 80% 30.32 in 10.0 mi North 11.5 mph 16.1 mph N/A   Overcast
2:45 AM 28.4 °F 18.5 °F 23.0 °F 80% 30.33 in 10.0 mi NNE 11.5 mph - N/A   Overcast
3:05 AM 28.4 °F 18.5 °F 23.0 °F 80% 30.33 in 10.0 mi North 11.5 mph 19.6 mph N/A   Overcast
3:25 AM 28.4 °F 17.5 °F 23.0 °F 80% 30.33 in 10.0 mi NNE 13.8 mph - N/A   Overcast
3:45 AM 28.4 °F 18.0 °F 23.0 °F 80% 30.34 in 10.0 mi North 12.7 mph 17.3 mph N/A   Overcast
4:06 AM 28.4 °F 17.5 °F 23.0 °F 80% 30.35 in 10.0 mi North 13.8 mph - N/A   Overcast
4:25 AM 28.4 °F 18.5 °F 23.0 °F 80% 30.35 in 10.0 mi NNE 11.5 mph - N/A   Overcast
4:45 AM 28.4 °F 17.0 °F 23.0 °F 80% 30.36 in 10.0 mi NNE 15.0 mph - N/A   Overcast
5:05 AM 26.6 °F 16.8 °F 23.0 °F 86% 30.37 in 10.0 mi NNE 10.4 mph - N/A   Overcast
5:25 AM 26.6 °F 16.2 °F 21.2 °F 80% 30.38 in 10.0 mi NNE 11.5 mph 17.3 mph N/A   Overcast
6:06 AM 26.6 °F 16.2 °F 19.4 °F 74% 30.41 in 10.0 mi NE 11.5 mph - N/A   Overcast
6:25 AM 26.6 °F 15.7 °F 19.4 °F 74% 30.41 in 10.0 mi NNE 12.7 mph - N/A   Overcast
6:45 AM 26.6 °F 16.8 °F 19.4 °F 74% 30.42 in 10.0 mi NE 10.4 mph - N/A   Overcast
7:05 AM 26.6 °F 15.2 °F 19.4 °F 74% 30.42 in 10.0 mi NNE 13.8 mph 18.4 mph N/A   Overcast
7:25 AM 24.8 °F 14.6 °F 19.4 °F 80% 30.43 in 10.0 mi NNE 10.4 mph 18.4 mph N/A   Overcast
7:45 AM 24.8 °F 14.0 °F 19.4 °F 80% 30.44 in 10.0 mi North 11.5 mph - N/A   Overcast
8:05 AM 24.8 °F 13.4 °F 19.4 °F 80% 30.45 in 10.0 mi NNE 12.7 mph - N/A   Overcast
8:25 AM 24.8 °F 14.0 °F 19.4 °F 80% 30.46 in 10.0 mi NNE 11.5 mph - N/A   Overcast
8:45 AM 24.8 °F 14.0 °F 17.6 °F 74% 30.46 in 10.0 mi NNE 11.5 mph 18.4 mph N/A   Overcast
9:05 AM 24.8 °F 14.0 °F 17.6 °F 74% 30.47 in 10.0 mi NNE 11.5 mph 17.3 mph N/A   Overcast
9:25 AM 24.8 °F 12.4 °F 17.6 °F 74% 30.47 in 10.0 mi NNE 15.0 mph - N/A   Overcast
9:46 AM 24.8 °F 14.0 °F 19.4 °F 80% 30.48 in 10.0 mi NNE 11.5 mph 19.6 mph N/A Snow Light Snow
10:05 AM 24.8 °F 14.0 °F 17.6 °F 74% 30.48 in 10.0 mi NNE 11.5 mph - N/A   Overcast
10:25 AM 24.8 °F 15.3 °F 17.6 °F 74% 30.49 in 7.0 mi NE 9.2 mph - N/A Snow Light Snow
10:45 AM 24.8 °F 15.3 °F 17.6 °F 74% 30.49 in 10.0 mi North 9.2 mph - N/A   Overcast
11:06 AM 24.8 °F 14.0 °F 17.6 °F 74% 30.50 in 10.0 mi North 11.5 mph - N/A   Overcast
11:25 AM 24.8 °F 13.4 °F 17.6 °F 74% 30.50 in 7.0 mi NNE 12.7 mph - N/A Snow Light Snow
11:45 AM 24.8 °F 14.6 °F 15.8 °F 69% 30.49 in 10.0 mi North 10.4 mph - N/A   Overcast
12:04 PM 24.8 °F 13.4 °F 15.8 °F 69% 30.49 in 10.0 mi NNE 12.7 mph - N/A   Overcast
12:25 PM 24.8 °F 14.6 °F 15.8 °F 69% 30.49 in 10.0 mi NNE 10.4 mph - N/A   Overcast
12:45 PM 24.8 °F 14.6 °F 15.8 °F 69% 30.49 in 10.0 mi NNE 10.4 mph 18.4 mph N/A Snow Light Snow
1:05 PM 24.8 °F 16.1 °F 15.8 °F 69% 30.48 in 10.0 mi North 8.1 mph - N/A Snow Light Snow
1:25 PM 24.8 °F 16.9 °F 15.8 °F 69% 30.48 in 10.0 mi North 6.9 mph - N/A   Overcast
1:46 PM 24.8 °F 16.1 °F 15.8 °F 69% 30.47 in 10.0 mi NNE 8.1 mph - N/A   Overcast
2:05 PM 24.8 °F 16.1 °F 15.8 °F 69% 30.47 in 10.0 mi North 8.1 mph - N/A   Overcast
2:25 PM 24.8 °F 16.1 °F 15.8 °F 69% 30.48 in 10.0 mi NE 8.1 mph - N/A   Overcast
2:45 PM 24.8 °F 19.1 °F 14.0 °F 64% 30.47 in 10.0 mi NNE 4.6 mph - N/A   Mostly Cloudy
3:05 PM 26.6 °F 18.2 °F 14.0 °F 59% 30.47 in 10.0 mi North 8.1 mph - N/A   Mostly Cloudy
3:26 PM 24.8 °F 16.9 °F 14.0 °F 64% 30.47 in 10.0 mi North 6.9 mph - N/A   Mostly Cloudy
3:45 PM 24.8 °F 16.9 °F 12.2 °F 59% 30.47 in 10.0 mi North 6.9 mph - N/A   Scattered Clouds
4:05 PM 24.8 °F 17.9 °F 14.0 °F 64% 30.47 in 10.0 mi NW 5.8 mph - N/A   Clear
4:26 PM 24.8 °F 17.9 °F 12.2 °F 59% 30.47 in 10.0 mi North 5.8 mph - N/A   Clear
4:45 PM 24.8 °F 17.9 °F 12.2 °F 59% 30.47 in 10.0 mi North 5.8 mph - N/A   Clear
5:05 PM 24.8 °F 16.9 °F 14.0 °F 64% 30.47 in 10.0 mi North 6.9 mph - N/A   Clear
5:25 PM 23.0 °F 15.8 °F 14.0 °F 68% 30.47 in 10.0 mi North 5.8 mph - N/A   Clear
5:45 PM 21.2 °F 16.4 °F 12.2 °F 68% 30.48 in 10.0 mi North 3.5 mph - N/A   Clear
6:05 PM 21.2 °F 14.9 °F 12.2 °F 68% 30.48 in 10.0 mi North 4.6 mph - N/A   Clear
6:25 PM 21.2 °F 14.9 °F 12.2 °F 68% 30.48 in 10.0 mi North 4.6 mph - N/A   Clear
6:45 PM 19.4 °F 12.8 °F 12.2 °F 74% 30.49 in 10.0 mi North 4.6 mph - N/A   Clear
7:04 PM 19.4 °F 12.8 °F 12.2 °F 74% 30.49 in 10.0 mi North 4.6 mph - N/A   Clear
7:25 PM 19.4 °F 11.5 °F 12.2 °F 74% 30.49 in 10.0 mi North 5.8 mph - N/A   Clear
7:45 PM 19.4 °F 11.5 °F 10.4 °F 68% 30.49 in 10.0 mi North 5.8 mph - N/A   Clear
8:05 PM 19.4 °F 11.5 °F 10.4 °F 68% 30.49 in 10.0 mi North 5.8 mph - N/A   Clear
8:25 PM 17.6 °F 10.7 °F 10.4 °F 73% 30.49 in 10.0 mi North 4.6 mph - N/A   Clear
8:45 PM 17.6 °F 12.3 °F 8.6 °F 68% 30.49 in 10.0 mi North 3.5 mph - N/A   Clear
9:05 PM 17.6 °F 12.3 °F 8.6 °F 68% 30.49 in 10.0 mi NNW 3.5 mph - N/A   Clear
9:25 PM 15.8 °F - 8.6 °F 73% 30.49 in 10.0 mi Calm Calm - N/A   Clear
9:45 PM 14.0 °F 8.2 °F 8.6 °F 79% 30.49 in 10.0 mi NW 3.5 mph - N/A   Clear
10:05 PM 14.0 °F 8.2 °F 8.6 °F 79% 30.49 in 10.0 mi WNW 3.5 mph - N/A   Clear
10:25 PM 12.2 °F 2.9 °F 6.8 °F 79% 30.49 in 10.0 mi WNW 5.8 mph - N/A   Clear
10:45 PM 12.2 °F 4.3 °F 6.8 °F 79% 30.49 in 10.0 mi WNW 4.6 mph - N/A   Clear
11:05 PM 12.2 °F 4.3 °F 6.8 °F 79% 30.49 in 10.0 mi WNW 4.6 mph - N/A   Clear
11:25 PM 12.2 °F 4.3 °F 6.8 °F 79% 30.48 in 10.0 mi WNW 4.6 mph - N/A   Clear
11:45 PM 12.2 °F 2.9 °F 6.8 °F 79% 30.49 in 10.0 mi WNW 5.8 mph - N/A   Clear